Weather observations for the past three days for
Nashville, Nashville International Airport
Imperial (Metric)
Date Time (cdt) Wind (mph) Vis. (mi.) Weather Sky Cond. Temperature (ºF) Relative Humidity Wind Chill (°F) Heat Index (°F) Pressure Precipitation (in)
Air Dwpt 6 hour altimeter (in) sea level (mb) 1 hr 3 hr 6 hr
Max. Min.
18 15:53 SE 7 10.00 Mostly Cloudy BKN045TCU BKN065 BKN250 86 69.1 57% 90 30.13 1019.4
18 14:53 SE 7 10.00 Light Rain SCT046TCU BKN080 BKN250 86 69.1 57% 90 30.14 1019.7
18 13:53 S 6 10.00 Overcast SCT050TCU BKN070 OVC250 87.1 68 53% 91 30.14 1019.9
18 12:53 S 10 10.00 Overcast FEW048TCU SCT060 BKN075 OVC250 87.1 69.1 89.1 78.1 55% 91 30.14 1020.0
18 11:53 S 9 10.00 Mostly Cloudy FEW048TCU BKN060 BKN075 BKN250 87.1 68 53% 91 30.15 1020.1
18 10:53 S 8 10.00 Mostly Cloudy FEW048 SCT060 BKN075 BKN250 86 66.9 53% 89 30.16 1020.3
18 09:53 S 7 10.00 Mostly Cloudy FEW060 SCT075 BKN250 86 66.9 53% 89 30.15 1020.3
18 08:53 S 9 10.00 Mostly Cloudy FEW038 BKN060 BKN250 82.9 66.9 59% 86 30.16 1020.6
18 07:53 S 7 10.00 Mostly Cloudy FEW060 BKN250 81 70 69% 84 30.15 1019.9
18 06:53 S 6 10.00 Mostly Cloudy FEW060 BKN250 79 69.1 80.1 75.9 72% 82 30.13 1019.5
18 05:53 S 3 10.00 Mostly Cloudy SCT065 BKN250 77 68 74% 79 30.11 1018.9
18 04:53 Calm 10.00 Overcast BKN060 OVC150 77 69.1 77% 79 30.09 1018.2
18 03:53 Calm 10.00 Overcast OVC150 77 68 74% 79 30.08 1017.6
18 02:53 S 3 10.00 Overcast OVC150 78.1 68 71% 80 30.07 1017.2
18 01:53 Calm 10.00 Mostly Cloudy BKN250 78.1 68 71% 80 30.07 1017.3
18 00:53 SE 6 10.00 Mostly Cloudy BKN250 79 68 89.1 79 69% 81 30.08 1017.6
17 23:53 S 3 10.00 Overcast OVC250 80.1 69.1 69% 83 30.09 1017.9
17 22:53 SE 6 10.00 Overcast OVC250 81 68 65% 84 30.08 1017.8
17 21:53 S 6 10.00 Mostly Cloudy BKN250 82 68 63% 85 30.07 1017.5
17 20:53 S 6 10.00 Mostly Cloudy FEW120 BKN250 82 68 63% 85 30.06 1017.2
17 19:53 S 8 10.00 Mostly Cloudy FEW060 SCT120 BKN250 86 68 55% 89 30.05 1016.9
17 18:53 S 12 10.00 Mostly Cloudy FEW060 SCT090 BKN250 89.1 68 93.9 88 50% 93 30.03 1016.3
17 17:53 S 7 10.00 Mostly Cloudy FEW070 SCT150 BKN250 89.1 66.9 48% 92 30.01 1015.6
17 16:53 S 12 G 23 10.00 Mostly Cloudy SCT070 SCT130 BKN250 90 66.9 47% 93 30.01 1015.4
17 15:53 S 10 10.00 Mostly Cloudy SCT070TCU SCT120 BKN250 90 68 48% 94 30.02 1016.0
17 14:53 SE 6 10.00 Mostly Cloudy SCT050 BKN075 BKN200 BKN250 91.9 70 49% 98 30.05 1016.9
17 13:53 S 14 10.00 Mostly Cloudy SCT046 SCT130 BKN210 BKN250 90 69.1 50% 95 30.07 1017.3
17 12:53 S 14 10.00 Mostly Cloudy FEW050 SCT130 BKN200 BKN250 90 69.1 91 75.9 50% 95 30.08 1018.0
17 11:53 S 12 10.00 Mostly Cloudy FEW050 SCT110 SCT140 BKN250 90 70 52% 95 30.1 1018.5
17 10:53 S 9 10.00 Mostly Cloudy FEW050 SCT140 BKN250 88 71.1 57% 94 30.11 1018.7
17 09:53 S 9 10.00 Mostly Cloudy FEW040 SCT140 BKN250 87.1 71.1 59% 93 30.11 1018.7
17 08:53 S 10 10.00 Partly Cloudy FEW055 SCT150 SCT250 82.9 71.1 67% 88 30.11 1018.9
17 07:53 S 8 10.00 Partly Cloudy SCT140 SCT250 79 71.1 77% 82 30.11 1019.0
17 06:53 SE 5 10.00 Mostly Cloudy BKN140 BKN160 75 70 75.9 73 84% 75 30.1 1018.7
17 05:53 S 3 10.00 Mostly Cloudy BKN150 BKN250 73 69.1 87% 30.09 1018.1
17 04:53 Calm 10.00 Mostly Cloudy BKN150 73 69.1 87% 30.07 1017.6
17 03:53 SE 3 10.00 Partly Cloudy SCT250 73 69.1 87% 30.06 1017.3
17 02:53 Calm 10.00 Partly Cloudy SCT250 73 69.1 87% 30.06 1017.0
17 01:53 E 5 10.00 Partly Cloudy SCT250 73.9 70 88% 30.05 1016.7
17 00:53 SE 3 10.00 Fair CLR 73 69.1 75.9 73 87% 30.05 1016.7 0.3
16 23:53 S 3 10.00 Fair CLR 73.9 69.1 85% 30.04 1016.4
16 22:53 S 9 10.00 Partly Cloudy SCT060 73.9 69.1 85% 30.03 1016.2
16 21:53 S 9 10.00 Partly Cloudy SCT060 73.9 69.1 85% 30.03 1016.0 0.3
16 20:53 NE 13 10.00 Thunderstorm SCT031CB BKN060 BKN110 75.9 69.1 79% 77 30.05 1016.7 0.29
16 19:53 E 10 G 22 10.00 Mostly Cloudy BKN060CB BKN090 75 69.1 82% 75 30.05 1016.9 0.01
16 18:53 Vrbl 3 G 31 5.00 Thunderstorm Light Rain Fog/Mist BKN060CB BKN070 OVC090 75 71.1 98.1 75 88% 75 30.04 1016.6 0.39 0.4
16 17:53 E 13 10.00 Thunderstorm FEW025CB SCT060 BKN090 84.9 69.1 59% 89 29.98 1014.6
16 16:53 NW 6 10.00 Thunderstorm SCT035CB BKN100 BKN120 86 69.1 57% 90 29.98 1014.3
16 15:53 N 10 10.00 Mostly Cloudy SCT060CB SCT100 BKN110 90 68 48% 94 29.98 1014.3 0.01
16 14:53 SW 6 8.00 Thunderstorm Light Rain SCT060TCU BKN100 BKN120 86 70 59% 91 29.99 1014.7 0.01
16 13:53 W 6 10.00 Partly Cloudy SCT060TCU SCT110 SCT250 98.1 69.1 39% 104 30 1015.1
16 12:53 Vrbl 5 10.00 Partly Cloudy SCT055TCU SCT100 SCT250 96.1 69.1 98.1 75.9 41% 102 30.03 1015.9
16 11:53 Vrbl 3 10.00 Partly Cloudy SCT055TCU SCT110 SCT250 93.9 68 43% 98 30.04 1016.4
16 10:53 Vrbl 5 10.00 A Few Clouds FEW055 FEW250 93 69.1 46% 98 30.04 1016.5
16 09:53 SE 3 10.00 Fair CLR 91 69.1 49% 96 30.04 1016.5
16 08:53 S 5 10.00 Fair CLR 86 69.1 57% 90 30.05 1016.5
16 07:53 Vrbl 3 10.00 Fair CLR 80.1 68 67% 83 30.04 1016.3
16 06:53 SE 5 10.00 Fair CLR 75.9 66.9 79 73 74% 77 30.03 1016.0
16 05:53 E 3 10.00 A Few Clouds FEW250 73 66 79% 30.01 1015.6
16 04:53 Calm 10.00 Partly Cloudy SCT250 73 64.9 76% 30 1015.1
16 03:53 Calm 10.00 Fair CLR 75 64.9 71% 77 29.99 1014.5
16 02:53 NE 3 10.00 Fair CLR 75.9 64.9 69% 78 29.99 1014.5
16 01:53 NE 5 10.00 Fair CLR 77 64.9 66% 79 29.99 1014.5
16 00:53 Vrbl 3 10.00 Fair CLR 78.1 64.9 91 77 64% 80 30 1014.9
15 23:53 E 3 10.00 Fair CLR 79 64.9 62% 81 30 1014.9
15 22:53 E 7 10.00 Fair CLR 81 66 61% 83 30 1014.9
15 21:53 E 6 10.00 Fair CLR 82.9 66 57% 85 30 1014.9
15 20:53 E 7 10.00 A Few Clouds FEW250 84.9 64 50% 86 29.99 1014.5
15 19:53 NE 10 10.00 A Few Clouds FEW250 88 62.1 42% 88 29.98 1014.2
15 18:53 NE 9 10.00 A Few Clouds FEW090 FEW250 91 62.1 96.1 91 38% 92 29.97 1014.0
15 17:53 NE 8 10.00 A Few Clouds FEW090 FEW250 93 61 34% 93 29.97 1013.9
15 16:53 NE 10 10.00 A Few Clouds FEW070 93.9 60.1 32% 94 29.98 1014.3
Date Time (cdt) Wind (mph) Vis. (mi.) Weather Sky Cond. Air Dwpt Max. Min. Relative Humidity Wind Chill (°F) Heat Index (°F) altimeter (in) sea level (mb) 1 hr 3 hr 6 hr
6 hour
Temperature (ºF) Pressure Precipitation (in)